User: anonymous   Login
Location: Ballingbuur
(53.0000°N, 5.7667°E)
Time: 21:01:38
(UTC+00:00)
Language:

Cosmos 2227 - Orbit

View from above orbital plane
View from above orbital plane
View from above satellite
View from above satellite

Ground track
Ground track

The orbit data is extracted from the following two-line orbital elements,

1 22284U 92093A   21055.35253394 -.00000304  00000-0 -13644-3 0  9998
2 22284  70.9774 289.1818 0021390 291.2796  68.6041 14.13328659452853
Epoch (UTC): 24 February 2021 08:27:38
Eccentricity: 0.0021390
inclination: 70.9774°
perigee height: 832 km
apogee height: 863 km
right ascension of ascending node: 289.1818°
argument of perigee: 291.2796°
revolutions per day: 14.13328659
mean anomaly at epoch: 68.6041°
orbit number at epoch: 45285

The dashed part of the orbit path shows where the satellite is in the earth's shadow,  

DLR